CHINASAT 1D (ZX 1D) (49505 NORAD) Tracking and Keplerian Element Data

This shows tracking and keplerian element data for the satellite.

Feedback or suggestion? Click here.




ElementValue
Catalog49505
NameCHINASAT 1D (ZX 1D)
Epoch Orbit65
Epoch Day15.89313209
Epoch Year2022
RAAN281.3236
Inclination1.858
Eccentricity0.0001224
Argument of Perigee139.5419
Mean Anonmoly146.1151
Mean Motion1.00274204
Decay Rate-3.19E-06
L11 49505U 21114A 22015.89313209 -.00000319 00000+0 00000+0 0 9999
L22 49505 1.8580 281.3236 0001224 139.5419 146.1151 1.00274204 653

Live tracking and technical data element details for CHINASAT 1D (ZX 1D) (NORAD 49505). CHINASAT 1D (ZX 1D) can be tracked NOW for your location showing map with azimuth and elevation plus other details from your city location.

Track the satellite on the map from your city or location and see movement details for azimuth, elevation, latitude, longitude, range, height, and movement on the map or in text.







IsCatalogInMostPopularTable: catalog: 49505, numindb: 7
Update: records affected: 1



GetName: 49505 CHINASAT 1D (ZX 1D)

Hit Count: updated at: Thu, 20 Jan 2022 17:36:34 GMT